USA 99 (MILSTAR-1 1) 1 22988U 94009A 21060.53057063 -.00000197 00000-0 00000+0 0 9996 2 22988 14.5752 48.1970 0002438 320.9907 251.3516 1.00273792 12255 TITAN 4 CENTAUR R/B 1 22989U 94009B 21060.21838473 -.00000034 00000-0 00000-0 0 9995 2 22989 14.2224 41.9636 0008610 197.8875 162.1325 1.00580790 5832